SCP
0 0 0 0 0 0 0 0 0 0 0 1 1 1 1 1 1 1 2 2 3 3 3 2 2 2 2 2 2 2 2 2 2 2 1 1 1 1 0 0 0 0 0
0 0 0 0 0 0 0 0 0 0 0 1 1 1 1 1 1 1 2 2 3 3 3 3 3 3 3 3 3 2 2 2 2 2 2 1 1 1 1 1 0 0 0
0 0 0 0 0 0 0 0 0 0 0 0 0 0 0 1 1 1 1 2 2 3 3 4 4 4 4 4 4 3 3 3 3 2 2 2 2 2 1 1 1 1 0
0 0 0 0 0 0 0 0 0 0 0 0 0 0 0 1 1 1 1 1 2 2 3 4 5 5 5 5 5 4 4 4 3 3 3 2 2 2 2 2 1 1 1
0 0 0 0 0 0 0 0 0 0 0 0 0 0 0 0 0 1 1 1 1 2 3 4 5 6 6 6 6 6 5 4 4 3 3 3 3 2 2 2 2 2 1
0 0 0 0 0 0 0 0 0 0 0 0 0 0 0 0 0 0 1 1 1 1 2 3 4 5 6 6 7 6 6 5 5 4 4 3 3 3 3 2 2 2 2
1 0 0 0 0 0 0 0 0 0 0 0 0 0 0 0 0 0 0 1 1 1 1 2 2 3 4 4 5 5 5 5 4 4 4 4 3 3 3 3 2 2 2
1 0 0 0 0 0 0 0 0 0 0 0 0 0 0 0 0 0 0 0 0 1 1 1 2 2 2 2 2 3 3 3 3 3 3 3 3 3 3 3 3 2 2
0 0 0 0 0 0 0 0 0 0 0 0 0 0 0 0 0 0 0 0 0 0 1 1 1 2 2 1 1 1 2 2 2 2 2 2 2 2 2 2 2 2 2
0 0 0 0 0 0 0 0 0 0 0 0 0 0 0 0 0 0 0 0 0 0 0 0 1 1 1 1 1 1 1 1 1 1 1 1 1 2 2 2 2 2 2
0 0 0 0 0 0 0 0 0 0 0 0 0 0 0 0 0 0 0 0 0 0 0 0 0 0 1 1 0 1 1 1 1 1 1 1 1 1 1 1 1 1 1
0 0 1 0 0 0 0 0 0 0 0 0 0 0 0 0 0 0 0 0 0 0 0 0 0 0 0 0 0 0 0 1 1 1 1 1 1 1 1 1 1 1 1
0 0 0 0 0 0 0 0 0 0 0 0 0 0 0 0 0 0 0 0 0 0 0 0 0 0 0 0 0 0 0 0 0 0 0 1 1 1 1 1 1 1 1
0 0 0 0 0 0 0 0 0 0 0 0 0 0 0 0 0 0 0 0 0 0 0 0 0 0 0 0 0 0 0 0 0 0 0 0 0 1 1 1 1 1 1
0 0 0 0 0 0 0 0 0 0 0 0 0 0 0 0 0 0 0 0 0 0 0 0 0 0 0 0 0 0 0 0 0 0 0 0 0 0 1 1 1 1 1
0 0 0 0 0 0 0 0 0 0 0 0 0 0 0 0 0 0 0 0 0 0 0 0 0 0 0 0 0 0 0 0 0 0 0 0 0 0 0 0 0 0 0
0 0 0 0 0 0 0 0 0 0 0 0 0 0 0 0 0 0 0 0 0 0 0 0 0 0 0 0 0 0 0 0 0 0 0 0 0 0 0 0 0 0 0
0 0 0 0 0 0 0 0 0 0 0 0 0 0 0 0 0 0 0 0 0 0 0 0 0 0 0 0 0 0 0 0 0 0 0 0 0 0 0 0 0 0 0
0 0 0 0 0 0 0 0 0 0 0 0 0 0 0 0 0 0 0 0 0 0 0 0 0 0 0 0 0 0 0 0 0 0 0 0 0 0 0 0 0 0 0
0 0 0 0 0 0 0 0 0 0 0 0 0 0 0 0 0 0 0 0 0 0 0 0 0 0 0 0 0 0 0 0 0 0 0 0 0 0 0 0 0 0 0
0 0 0 0 0 0 0 0 0 0 0 0 0 0 0 0 0 0 0 0 0 0 0 0 0 0 0 0 0 0 0 0 0 0 0 0 0 0 0 0 0 0 0
0 0 0 0 0 0 0 0 0 0 0 0 0 0 0 0 0 0 0 0 0 0 0 0 0 0 0 0 0 0 0 0 0 0 0 0 0 0 0 0 0 0 0
0 0 0 0 0 0 0 0 0 0 0 0 0 0 0 0 0 0 0 0 0 0 0 0 0 0 0 0 0 0 0 0 0 0 0 0 0 0 0 0 0 0 0
0 0 0 0 0 0 0 0 0 0 0 0 0 0 0 0 0 0 0 0 0 0 0 0 0 0 0 0 0 0 0 0 0 0 0 0 0 0 0 0 0 0 0
0 0 0 0 0 0 0 0 0 0 0 0 0 0 0 0 0 0 0 0 0 0 0 0 0 0 0 0 0 0 0 0 0 0 0 0 0 0 0 0 0 0 0
0 0 0 0 0 0 0 0 0 0 0 0 0 0 0 0 0 0 0 0 0 0 0 0 0 0 0 0 0 0 0 0 0 0 0 0 0 0 0 0 0 0 0
Wind_Speed
2 2 1 1 1 1 1 1 2 2 2 1 1 2 2 3 3 3 2 8 9 10 10 11 11 11 10 10 10 10 10 9 9 8 9 10 10 10 10 10 9 9 8
2 2 2 1 1 1 1 2 2 2 1 1 1 1 2 2 2 3 3 4 8 9 10 11 11 11 11 11 11 10 10 10 9 9 9 9 10 10 9 9 9 9 8
3 3 2 1 1 1 2 2 2 2 1 1 1 1 1 1 2 2 2 2 3 7 9 10 11 11 11 12 11 11 11 10 10 10 9 9 9 9 9 9 9 9 8
4 3 2 2 1 2 2 2 2 2 1 1 1 1 1 1 1 1 1 2 2 2 5 9 9 10 11 12 13 12 12 11 10 10 10 10 10 9 10 10 10 9 9
4 3 3 2 2 2 2 2 2 1 1 1 1 1 2 1 1 0 1 2 2 2 2 4 6 8 10 11 12 12 12 12 11 11 12 12 11 10 10 10 10 10 9
4 4 3 3 3 2 2 2 2 2 1 1 2 3 3 2 1 1 0 1 1 2 2 2 2 3 6 8 9 11 11 12 13 13 13 13 13 12 11 11 11 11 10
4 4 3 3 3 2 2 3 2 3 2 1 2 2 3 3 2 2 1 1 1 1 1 2 1 1 1 4 6 8 9 10 11 12 13 13 13 12 12 12 11 11 11
4 4 4 3 3 3 3 2 2 2 2 2 2 2 2 2 3 2 2 1 1 1 0 1 1 2 1 1 2 5 7 9 10 11 12 12 12 12 13 13 13 12 12
4 4 4 3 3 3 2 2 2 3 2 2 2 2 3 2 1 2 2 3 2 2 2 1 0 1 2 2 1 3 5 6 8 10 11 11 11 10 11 12 13 14 13
4 4 4 4 3 2 3 2 2 2 3 2 2 2 2 2 2 1 2 2 3 3 3 2 2 1 0 1 1 3 4 5 5 7 8 9 9 10 11 12 13 14 14
3 4 4 4 4 3 3 3 3 3 2 2 2 1 2 2 2 2 1 2 2 2 2 2 2 2 1 0 1 2 3 3 3 4 5 6 8 9 10 11 12 12 13
2 3 4 4 3 3 3 3 3 4 3 3 2 2 2 2 1 2 2 1 1 2 3 2 2 2 1 1 1 1 2 3 3 3 4 4 6 7 8 9 10 12 12
2 2 3 3 3 3 3 3 3 3 3 3 3 2 2 1 1 2 2 1 1 1 2 2 2 2 2 1 2 3 2 2 2 3 3 3 4 5 6 7 9 10 11
3 3 3 3 3 3 4 3 3 2 3 3 3 3 2 1 1 2 2 2 1 1 2 2 2 2 2 2 2 2 2 3 3 3 3 4 4 4 5 5 7 8 9
3 4 4 4 3 4 4 4 3 3 3 3 3 3 2 1 1 1 2 2 3 1 1 2 2 3 3 2 2 2 2 3 4 4 4 5 5 5 5 6 7 7 8
4 5 4 4 4 4 4 3 3 2 3 2 2 3 2 1 2 2 2 2 2 2 1 1 2 2 3 3 3 3 3 5 4 5 5 5 5 6 6 6 7 7 8
5 5 5 5 4 4 3 3 3 3 3 2 2 2 2 2 2 1 2 2 1 2 2 1 1 2 2 3 3 3 3 2 3 5 6 6 5 5 6 6 7 7 8
5 5 5 5 4 4 4 4 3 3 3 3 2 2 2 1 2 1 1 1 1 1 2 1 1 2 2 2 3 3 3 2 3 5 6 6 6 6 6 7 7 8 8
5 4 4 5 4 4 4 4 3 3 3 3 3 3 3 2 2 1 1 1 1 1 1 1 1 1 2 2 2 3 3 3 4 4 5 5 6 6 7 7 8 8 9
5 5 4 4 4 4 4 4 4 3 3 3 3 3 3 4 4 3 2 2 2 1 1 1 2 2 2 2 2 2 3 2 3 4 4 4 5 6 7 8 9 9 10
6 5 5 4 4 4 4 5 4 4 4 3 3 3 4 5 6 5 3 3 3 2 2 2 2 2 2 2 2 2 3 4 4 3 3 3 3 4 5 7 8 9 10
5 5 5 5 5 4 6 8 6 4 4 4 4 3 4 4 5 6 7 7 7 5 4 3 3 3 4 4 3 2 2 3 4 2 2 5 4 6 6 6 8 10 11
5 5 5 5 5 6 7 8 8 5 5 4 4 4 3 3 3 3 4 5 6 8 8 5 5 6 5 5 3 4 4 4 5 4 3 6 5 6 6 6 10 12 12
6 5 6 6 5 6 8 8 8 5 4 5 5 5 5 5 4 4 4 4 5 6 7 7 7 8 7 6 5 5 5 5 6 5 4 5 5 6 6 6 9 11 11
6 6 5 6 6 6 8 9 7 4 4 5 5 6 6 6 7 6 5 5 6 6 6 8 10 10 10 10 7 4 4 4 6 5 4 4 5 5 5 6 6 8 9
7 6 6 6 7 7 8 10 9 4 5 5 5 5 8 9 8 6 6 6 7 7 5 5 5 7 7 8 8 8 7 6 5 5 3 4 4 4 5 4 4 5 6
Wind_Direction
145 131 119 101 96 99 112 109 106 100 85 79 122 147 163 171 174 176 189 196 191 191 190 188 187 183 181 180 179 178 177 174 172 170 171 170 168 167 165 163 160 159 159
143 137 131 122 105 108 124 119 119 109 90 84 96 133 154 160 171 178 186 202 201 198 200 199 196 194 191 190 188 187 187 184 179 178 179 177 176 176 175 173 171 169 166
136 132 129 120 108 109 110 99 91 87 92 78 62 59 107 139 156 172 178 193 207 210 209 211 207 203 200 199 197 196 195 191 187 188 188 187 183 181 181 180 180 177 175
126 122 120 119 115 104 102 107 93 84 70 67 56 38 45 83 113 171 180 195 206 216 220 221 218 211 209 208 206 204 202 200 195 196 196 194 192 189 187 186 187 184 184
118 115 113 115 114 108 107 123 90 99 101 77 58 50 40 44 54 236 201 205 214 226 230 242 227 217 217 217 215 212 209 207 204 204 205 203 202 199 195 195 194 192 192
115 110 107 106 108 107 99 102 102 81 86 90 66 49 33 27 34 18 311 233 230 238 229 238 236 232 226 221 220 220 217 214 212 212 213 211 210 206 203 202 202 200 200
117 112 110 100 105 112 117 120 113 92 62 60 79 46 27 33 45 20 2 360 319 282 238 224 214 216 235 232 228 228 226 224 221 218 218 216 215 211 209 210 210 208 207
120 120 117 111 106 104 96 98 110 105 63 49 111 103 51 17 17 25 20 27 10 355 283 212 196 210 225 222 239 233 234 235 232 227 225 222 219 217 215 215 214 213 212
115 116 122 114 105 102 106 95 108 122 120 61 56 134 141 181 329 1 17 27 22 23 7 357 287 227 219 209 230 251 246 241 239 235 233 229 224 225 225 225 223 220 218
122 126 123 116 108 100 102 95 90 108 126 121 69 52 88 136 138 75 357 10 22 30 14 7 9 14 273 220 233 248 258 254 248 245 239 234 229 228 231 232 233 230 227
104 122 121 117 112 104 101 93 88 89 101 125 125 110 83 69 75 125 82 357 11 11 15 12 11 21 23 333 243 248 261 271 275 271 258 241 233 232 234 239 242 241 237
91 106 114 115 118 115 112 107 101 99 96 101 100 104 123 119 118 117 122 53 8 346 353 5 18 11 10 12 319 297 276 266 265 270 273 267 254 241 238 244 248 250 248
135 138 126 127 126 123 118 112 104 100 102 102 101 95 97 111 134 129 123 117 50 343 341 354 5 2 9 14 351 347 335 315 294 280 283 289 285 274 258 256 255 257 256
156 148 141 137 131 126 120 110 103 102 97 96 98 99 93 87 118 138 139 135 93 15 4 341 333 357 1 357 349 359 1 353 335 314 300 290 285 278 272 272 266 265 266
149 146 142 133 128 124 124 119 110 107 106 96 102 104 95 77 82 99 121 136 139 139 300 321 325 335 347 352 353 358 344 332 326 315 302 292 284 276 268 265 266 266 267
147 147 145 142 135 129 128 122 118 120 117 108 112 108 94 84 80 86 106 112 128 147 187 272 293 313 326 340 359 348 326 320 315 310 301 292 285 278 269 262 262 262 260
158 160 158 151 145 142 141 135 136 134 127 116 109 115 106 111 100 94 102 111 121 139 174 266 277 299 309 326 335 334 320 311 305 302 298 290 285 281 276 272 269 264 259
165 162 156 153 157 155 154 155 159 154 152 153 151 141 143 133 115 116 124 133 149 166 179 236 287 303 298 308 314 317 322 318 302 295 292 286 284 282 279 276 272 267 262
161 160 159 165 170 169 170 175 173 172 176 181 182 180 184 166 179 188 179 180 184 170 177 209 271 289 292 307 317 311 309 307 300 296 290 283 283 284 282 277 273 268 264
166 172 176 180 182 180 179 181 181 181 185 194 200 200 200 199 206 204 204 204 192 181 182 214 263 282 283 294 288 296 307 310 308 309 303 294 286 287 284 279 273 267 264
180 177 177 184 186 185 192 189 189 191 193 204 216 220 224 224 223 213 210 206 193 197 206 227 259 273 279 280 279 278 289 304 293 285 298 296 295 291 288 281 274 269 267
178 175 185 191 198 209 205 199 191 194 200 208 224 238 246 243 242 234 229 216 201 204 214 218 238 253 266 262 261 261 274 300 298 281 288 292 287 284 283 276 269 267 267
183 187 195 199 210 222 218 211 205 194 205 215 223 237 251 250 244 245 249 244 231 228 217 211 236 248 254 248 244 263 256 255 265 279 279 285 281 280 281 277 268 268 267
187 195 202 206 213 228 223 220 217 205 215 226 227 227 238 256 250 237 245 256 259 250 234 227 235 247 251 252 240 253 268 273 270 261 236 268 279 278 284 282 274 267 266
192 196 199 203 213 230 226 221 210 196 222 237 236 231 231 246 252 238 231 251 270 274 257 238 239 250 256 254 243 244 250 257 279 279 214 238 272 283 282 279 277 271 268
200 200 208 209 213 226 228 222 206 201 224 241 244 239 235 238 245 232 221 232 255 267 276 283 270 268 265 263 243 229 235 246 263 275 231 219 264 282 289 271 272 277 276